Location: Spanish Flat
(38.5352°N, 122.2250°W)
Time: 12:08:11
(UTC+00:00)

Daily predictions for brighter satellites

Satellite Brightness Start Highest point End
(mag) Time Altitude Azimuth Time Altitude Azimuth Time Altitude Azimuth
PSLV R/B 3.7 12:01:17 10° NNE 12:05:40 79° ESE 12:10:00 10° S
Cosmos 2285 Rocket 4.4 12:03:36 19° SW 12:07:51 46° WNW 12:13:53 10° N
Cosmos 468 4.5 12:04:23 10° NNW 12:09:36 66° WSW 12:14:50 10° S
OAO 3 Rocket 3.4 12:07:27 19° WSW 12:10:55 58° S 12:15:46 10° ESE
ARIANE 5 R/B 3.9 12:07:34 10° NNW 12:11:36 23° WNW 12:14:18 16° WSW
Hubble Space Telescope 3.0 12:09:58 10° S 12:11:48 13° SSE 12:13:37 10° SE
H-2A R/B (2) 2.8 12:12:20 14° SSW 12:12:57 15° S 12:15:01 10° SE
Cosmos 1844 Rocket 2.7 12:07:43 10° SSW 12:13:17 81° ESE 12:18:52 10° NNE
deb Chang Zheng 4 4.1 12:11:26 10° NNE 12:15:45 62° ESE 12:20:03 10° S
Cosmos 2228 3.4 12:12:56 15° SSW 12:16:14 45° W 12:20:28 10° N
Atlas Centaur 2 3.6 12:11:47 16° SW 12:17:07 40° SSE 12:24:44 10° E
Cosmos 1386 Rocket 4.4 12:15:44 10° N 12:21:44 73° W 12:27:42 10° S
SAR-Lupe-4 4.1 12:23:10 10° SSE 12:26:41 61° ENE 12:30:14 10° N
NOSS 2-2 (D) 3.3 12:24:04 10° SSW 12:27:38 67° ESE 12:31:18 10° NE
NOSS 2-2 (E) 3.0 12:24:39 12° SSW 12:27:52 88° WNW 12:31:39 10° NNE
Cosmos 2058 Rocket 3.1 12:25:29 10° SSW 12:29:57 69° W 12:34:24 10° N
Meteor 2-15 Rocket 4.4 12:26:06 10° SSW 12:32:10 77° W 12:38:15 10° N
CZ-2C R/B 4.3 12:29:54 10° NNW 12:32:42 20° WNW 12:35:08 11° WSW
USA 267 3.3 12:26:50 10° SE 12:33:22 85° SW 12:39:57 10° NW
Cosmos 883 Rocket 4.5 12:28:57 10° SSW 12:35:09 75° W 12:41:27 10° N
IDEFIX/ARIANE 42P 4.0 12:33:30 10° NNW 12:37:14 20° WNW 12:41:00 10° WSW
Cosmos 1125 Rocket 4.5 12:34:07 11° SW 12:38:30 31° WNW 12:43:09 10° N
Cosmos 1689 Rocket 4.4 12:36:29 10° SE 12:39:04 29° ENE 12:41:39 10° N
ADEOS 3.6 12:34:52 10° NNE 12:40:07 88° WNW 12:45:20 10° SSW
Cosmos 1745 Rocket 4.3 12:34:09 10° NNW 12:40:07 48° W 12:46:01 10° SSW
SAR-Lupe-1 4.0 12:38:18 10° SSE 12:41:52 88° WSW 12:45:29 10° NNW
H-2A R/B 3.1 12:39:04 10° SSW 12:42:18 22° W 12:45:33 10° NW
Cosmos 1943 4.3 12:38:57 10° NW 12:43:05 21° W 12:47:12 10° SSW
CZ-4B R/B 1.2 12:42:52 10° S 12:46:07 67° WSW 12:49:19 10° NNW
OAO 2 Rocket 3.9 12:41:44 10° WSW 12:46:47 48° SSE 12:51:46 10° E
Cosmos 494 Rocket 4.2 12:42:40 10° NNW 12:47:38 49° WSW 12:52:37 10° S
SeaSat 1 3.3 12:47:05 10° N 12:51:34 35° WNW 12:56:00 10° WSW
ASTRO F (AKARI) 4.2 12:48:54 10° NNE 12:51:59 87° E 12:55:04 10° SSW
